Regional Weather Roundup
Issued by NWS Green Bay, WI

Home | Current Version | Previous Version | Text Only | Print | Product List | Glossary On
Versions: 1 2 3 4 5 6 7 8 9 10 11 12 13 14 15 16 17 18 19 20 21 22 23 24 25 26 27 28 29 30 31 32 33 34 35 36 37 38 39 40 41 42 43 44 45 46 47 48 49 50
000
ASUS43 KGRB 011611
RWRGRB

NORTH-CENTRAL AND NORTHEAST WISCONSIN REGIONAL WEATHER ROUNDUP
NATIONAL WEATHER SERVICE GREEN BAY WI
1100 AM CDT WED JUL 01 2015

WIZ005-009-010>012-018-019-011700-
NORTH CENTRAL WISCONSIN

CITY           SKY/WX    TMP DP  RH WIND       PRES   REMARKS
IRONWOOD       SUNNY     63  45  51 NE5       30.00S
MANITOWISH WTR SUNNY     60  46  60 N7        30.03S
ARBOR VITAE    SUNNY     60  45  56 N7        30.02F
EAGLE RIVER    SUNNY     61  42  50 NE9       30.02S
LAND O LAKES   SUNNY     60  43  52 N6        30.03S
RHINELANDER    SUNNY     61  43  51 VRB7      30.02F
PHILLIPS       MOSUNNY   60  46  60 CALM      30.03S
ANTIGO         SUNNY     61  43  51 NE10G18   30.01S
TOMAHAWK       SUNNY     61  45  55 E5        30.03S
MERRILL        SUNNY     62  46  56 N9        30.03R
$$

WIZ013-073-011700-
NORTHEAST WISCONSIN

CITY           SKY/WX    TMP DP  RH WIND       PRES   REMARKS
IRON MOUNTAIN  SUNNY     63  42  46 N10       29.99R
MARINETTE      CLOUDY    57  46  67 NW7       29.99R
OCONTO         CLOUDY    54  49  82 N6        30.00S
$$

WIZ017-030-035>037-045-011700-
CENTRAL WISCONSIN

CITY           SKY/WX    TMP DP  RH WIND       PRES   REMARKS
MEDFORD        PTSUNNY   61  45  55 N8        30.02S
WAUSAU         MOSUNNY   64  44  48 N10G16    30.00S
MOSINEE        SUNNY     63  45  51 N10G16    30.02S
MARSHFIELD     PTSUNNY   62  44  51 NE7       30.01F
WISC RAPIDS    PTSUNNY   64  42  44 NE9       30.01S
STEVENS POINT  PTSUNNY   61  43  51 N7        30.01S
WAUPACA        SUNNY     64  47  54 N8        29.99F
SHAWANO        SUNNY     64  47  55 N6        29.99S
CLINTONVILLE   SUNNY     61  45  55 N8        30.00R
$$

WIZ038-039-048-051-011700-
FOX VALLEY

CITY           SKY/WX    TMP DP  RH WIND       PRES   REMARKS
NWS GREEN BAY  CLOUDY    60  49  66 N7        30.00R
APPLETON       MOSUNNY   61  46  59 N8        29.99S
OSHKOSH        SUNNY     62  49  62 N9        29.98S
FOND DU LAC    SUNNY     63  50  62 N6        29.98S
$$

WIZ022-050-052-011700-
EAST CENTRAL WISCONSIN

CITY           SKY/WX    TMP DP  RH WIND       PRES   REMARKS
STURGEON BAY   CLOUDY    54  46  76 N9        30.02R
MANITOWOC      CLOUDY    56  51  84 MISG      30.00R
SHEBOYGAN      CLOUDY    59  50  72 NW9       29.98R
$$

LMZ563-521-522-541>543-011700-
LAKESHORE

STATION/POSITION TIME  TEMP    WIND        PRES    VSBY  WAVE
                       AIR SEA DIR/SP/G                  HT/PER
                 (UTC) (F)     (DEG/KT/KT) (MB)    (MI)  (FT/S)
SHEBOYGAN LKSHOR 1600   55      10/  8/  9 1015.8R
KEWAUNEE LKSHORE 1500   54     350/  7/  9 1014.5R
TWO RIVERS CG    1455   55                 1015.1      6   2
NORTHPORT PIER   1500   53     330/ 15/ 20 1014.9S
N MID LAKE BUOY  1550   46 40  310/  6/  8 1015.0R         2/ 4
S GREEN BAY BUOY 1600   53 68  360/  8/ 12 1017.1
SISTER BAY LKSHO 1544   57     350/ 15/ 17   N/A
STURGEON BAY CG  1450   54     360/  6     1015.8      6   1
CHAMBERS ISLAND  1500   53     340/  8/ 11 1015.6R
MENOMINEE LKSHOR 1500   53     340/  6/  9 1016.0R
$$


USA.gov is the U.S. government's official web portal to all federal, state and local government web resources and services.